Regional Weather Roundup
Issued by NWS Goodland, KS

Home | Current Version | Previous Version | Text Only | Print | Product List | Glossary Off
Versions: 1 2 3 4 5 6 7 8 9 10 11 12 13 14 15 16 17 18 19 20 21 22 23 24 25 26 27 28 29 30 31 32 33 34 35 36 37 38 39 40 41 42 43 44 45 46 47 48 49 50

000
ASUS43 KGLD 310659
RWRGLD

GOODLAND FORECAST AREA HOURLY WEATHER ROUNDUP
NATIONAL WEATHER SERVICE GOODLAND KS
100 AM MDT FRI OCT 31 2014

...OFFICIAL OBSERVATIONS...

CITY           SKY/WX    TMP DP  RH WIND       PRES   REMARKS
GOODLAND KS    CLEAR     32  28  85 E3        30.46R
HILL CITY KS   CLEAR     39  32  76 NE13      30.44R
IMPERIAL NEB   CLEAR     33  27  78 CALM      30.47R
MCCOOK NEB     CLEAR     35  29  78 N5        30.47R
AKRON CO       CLEAR     35  28  75 E9        30.43R
BURLINGTON CO  CLEAR     38  29  70 E8        30.44R
LIMON CO       CLEAR     32  24  72 SE3       30.44S
$$

...UNOFFICIAL OBSERVATIONS...

CITY           SKY/WX    TMP DP  RH WIND       PRES   REMARKS
COLBY KS       CLEAR     36  32  87 N8        30.45R
NORTON KS      CLEAR     37  30  75 N9G16     30.43R
SHARON SPRINGS   N/A     35  28  76 CALM        N/A
TRIBUNE KS     CLEAR     39  34  81 NE3       30.46R
TRENTON NEB      N/A     35  32  89 NE7         N/A
YUMA CO          N/A     36  28  73 E7          N/A
$$



USA.gov is the U.S. government's official web portal to all federal, state and local government web resources and services.